Location: Unspecified
(35.6961°N, 0.0000°E)
Time: 04:52:34
(UTC+00:00)

Tiangong 2 - Visible Passes

Search period start: 23 April 2019 00:00
Search period end: 03 May 2019 00:00
Orbit: 378 x 389 km, 42.8° (Epoch: 22 April)

Date Brightness Start Highest point End Pass type
(mag) Time Alt. Az. Time Alt. Az. Time Alt. Az.
29 Apr 3.9 04:26:31 10° SSE 04:27:20 11° SE 04:28:09 10° ESE visible
01 May 3.1 04:02:12 13° S 04:04:10 21° SE 04:06:37 10° E visible
02 May 1.1 04:37:41 10° WSW 04:40:49 79° SSE 04:44:00 10° ENE visible
